Corpus Christi, TX

12:19 AM CST on February 27, 2017 (GMT -0600)
Corpus Christi International

Weather History for KCRP - November, 2012

Change the Weather History Date:

Tuesday, November 13, 2012

  Actual Average Record
Temperature  
Mean Temperature 58 °F 67 °F  
Max Temperature 62 °F 77 °F 93 °F (1951)
Min Temperature 53 °F 57 °F 36 °F (1986)
Degree Days  
Heating Degree Days 7 2  
Month to date heating degree days 7 21  
Since 1 July heating degree days 16 31  
Cooling Degree Days 0 4  
Month to date cooling degree days 121 70  
Year to date cooling degree days 4324 3421  
Growing Degree Days 8 (Base 50)    
Moisture  
Dew Point 42 °F    
Average Humidity 57    
Maximum Humidity 75    
Minimum Humidity 39    
Precipitation  
Precipitation 0.10 in 0.06 in 2.40 in (1947)
Month to date precipitation 0.47 1.05  
Year to date precipitation 18.67 29.01  
Snow  
Snow 0.00 in - - ()
Month to date snowfall 0.0  
Since 1 July snowfall 0.0  
Since 1 September snowfall 0.0  
Snow Depth 0.00 in    
Sea Level Pressure  
Sea Level Pressure 30.36 in    
Wind  
Wind Speed 15 mph (NE)    
Max Wind Speed 21 mph    
Max Gust Speed 26 mph    
Visibility 10 miles    
Events Rain    
T = Trace of Precipitation, MM = Missing Value Source: NWS Daily Summary

Daily Weather History Graph

Daily Weather History Graph

Search for Another Location

Airport or City:

Trip Planner

Search our weather history database for the weather conditions in past years. The results will help you decide how hot, cold, wet, or windy it might be!

Date:

Astronomy

Nov. 13, 2012 Rise Set
Actual Time 6:50 AM CST 5:38 PM CST
Civil Twilight 6:25 AM CST 6:03 PM CST
Nautical Twilight 5:57 AM CST 6:31 PM CST
Astronomical Twilight 5:29 AM CST 6:59 PM CST
Moon 6:28 AM CST (11/13) 5:35 PM CST (11/13)
Length of Visible Light 11h 37m
Length of Day
10h 48m
Waning Crescent, 0% of the Moon is Illuminated
Nov 13
Waning Crescent
Nov 13
New
Nov 20
First Quarter
Nov 28
Full
Dec 6
Last Quarter

Hourly Weather History & Observations

Time (CST) Temp. Dew Point Humidity Pressure Visibility Wind Dir Wind Speed Gust Speed Precip Events Conditions
12:51 AM 55.9 °F 33.1 °F 42% 30.40 in 10.0 mi NNE 17.3 mph - N/A   Partly Cloudy
1:51 AM 55.9 °F 33.1 °F 42% 30.40 in 10.0 mi NE 15.0 mph - N/A   Partly Cloudy
2:51 AM 55.0 °F 35.1 °F 47% 30.39 in 10.0 mi NE 13.8 mph - N/A   Mostly Cloudy
3:51 AM 55.0 °F 37.0 °F 51% 30.39 in 10.0 mi NE 15.0 mph - N/A   Mostly Cloudy
4:51 AM 55.0 °F 37.9 °F 53% 30.38 in 10.0 mi NE 16.1 mph - N/A   Overcast
5:51 AM 54.0 °F 39.0 °F 57% 30.38 in 10.0 mi NE 17.3 mph - N/A   Overcast
6:51 AM 54.0 °F 39.9 °F 59% 30.39 in 10.0 mi NE 17.3 mph - N/A   Mostly Cloudy
7:51 AM 55.0 °F 39.0 °F 55% 30.41 in 10.0 mi NE 13.8 mph - N/A   Mostly Cloudy
8:51 AM 55.9 °F 39.0 °F 53% 30.43 in 10.0 mi NE 16.1 mph - N/A   Mostly Cloudy
9:51 AM 59.0 °F 42.1 °F 53% 30.42 in 10.0 mi NNE 18.4 mph - N/A   Mostly Cloudy
10:51 AM 61.0 °F 43.0 °F 52% 30.40 in 10.0 mi NE 16.1 mph - N/A   Overcast
11:51 AM 61.0 °F 44.1 °F 54% 30.38 in 10.0 mi NNE 16.1 mph - N/A   Overcast
12:51 PM 62.1 °F 45.0 °F 53% 30.36 in 10.0 mi NE 12.7 mph - N/A   Overcast
1:51 PM 61.0 °F 48.9 °F 64% 30.31 in 10.0 mi NE 10.4 mph - 0.00 in Rain Light Rain
2:51 PM 59.0 °F 52.0 °F 78% 30.33 in 10.0 mi North 12.7 mph - 0.02 in   Mostly Cloudy
3:51 PM 59.0 °F 48.9 °F 69% 30.30 in 10.0 mi NE 12.7 mph - 0.00 in   Mostly Cloudy
4:51 PM 59.0 °F 50.0 °F 72% 30.27 in 10.0 mi ENE 13.8 mph - 0.00 in Rain Light Rain
5:51 PM 59.0 °F 52.0 °F 78% 30.27 in 10.0 mi ENE 13.8 mph - 0.07 in Rain Light Rain
6:51 PM 57.0 °F 50.0 °F 77% 30.32 in 10.0 mi NNW 13.8 mph - 0.01 in   Overcast
7:51 PM 54.0 °F 42.1 °F 64% 30.32 in 10.0 mi NNE 13.8 mph - N/A   Scattered Clouds
8:51 PM 55.9 °F 39.0 °F 53% 30.34 in 10.0 mi NE 13.8 mph - 0.00 in   Mostly Cloudy
9:51 PM 55.0 °F 39.0 °F 55% 30.33 in 10.0 mi NE 13.8 mph - 0.00 in Rain Light Rain
10:51 PM 55.9 °F 39.0 °F 53% 30.33 in 10.0 mi NE 13.8 mph - 0.00 in   Overcast
11:51 PM 55.9 °F 37.9 °F 51% 30.33 in 10.0 mi NE 12.7 mph - N/A   Overcast